Temp
-12 -12 -12 -12 -12 -12 -12 -12 -12 -12 -12 -12 -12 -11 -11 -11 -11 -11 -11 -11 -11 -11 -11 -12 -12 -11 -11 -11 -11 -11 -10 -10 -12 -12 -11 -12 -11 -10 -10 -11 -10 -10 -10 -10 -10
-13 -13 -13 -13 -13 -13 -13 -13 -12 -12 -12 -12 -12 -12 -12 -12 -12 -12 -12 -12 -12 -12 -12 -12 -12 -12 -12 -11 -11 -11 -10 -11 -11 -12 -11 -11 -11 -10 -10 -11 -11 -10 -10 -10 -10
-14 -14 -14 -14 -14 -13 -13 -13 -13 -13 -13 -13 -13 -13 -12 -12 -12 -12 -12 -12 -12 -12 -12 -12 -12 -12 -12 -12 -11 -11 -11 -11 -11 -11 -11 -11 -12 -11 -11 -11 -12 -11 -11 -10 -9
-14 -14 -14 -14 -14 -14 -14 -13 -13 -13 -13 -13 -13 -13 -13 -13 -13 -13 -13 -13 -13 -13 -12 -12 -12 -11 -11 -11 -12 -11 -11 -12 -12 -12 -11 -11 -12 -12 -11 -11 -11 -10 -10 -10 -10
-14 -14 -14 -14 -14 -14 -14 -14 -14 -14 -13 -13 -14 -14 -13 -13 -13 -13 -13 -13 -13 -13 -13 -13 -13 -12 -12 -12 -12 -11 -12 -11 -12 -12 -11 -11 -11 -12 -11 -11 -12 -11 -10 -11 -11
-14 -14 -14 -14 -14 -14 -14 -14 -14 -14 -14 -13 -14 -14 -14 -13 -14 -13 -13 -13 -13 -13 -13 -13 -13 -12 -12 -12 -12 -12 -12 -11 -11 -11 -11 -12 -12 -12 -12 -12 -12 -12 -11 -11 -11
-15 -15 -15 -15 -14 -14 -15 -14 -14 -15 -14 -14 -14 -14 -14 -14 -14 -14 -14 -14 -14 -13 -14 -14 -13 -13 -12 -13 -13 -12 -12 -12 -12 -12 -11 -13 -11 -11 -12 -13 -12 -12 -11 -11 -11
-15 -15 -15 -15 -15 -15 -15 -15 -15 -15 -15 -15 -15 -15 -15 -15 -15 -15 -15 -15 -15 -15 -15 -14 -14 -14 -13 -13 -13 -12 -12 -12 -12 -13 -13 -14 -10 -12 -13 -13 -13 -13 -12 -12 -11
-15 -15 -15 -15 -15 -15 -16 -16 -16 -16 -16 -17 -17 -17 -16 -16 -16 -16 -16 -16 -16 -16 -16 -15 -15 -15 -14 -14 -14 -14 -13 -13 -13 -13 -13 -13 -11 -12 -13 -13 -13 -13 -13 -12 -12
-16 -16 -16 -16 -16 -15 -16 -16 -16 -17 -17 -17 -17 -17 -17 -17 -17 -17 -17 -17 -18 -18 -17 -17 -16 -16 -16 -16 -14 -14 -14 -13 -12 -13 -14 -12 -11 -12 -13 -13 -13 -13 -13 -12 -12
-17 -16 -16 -16 -16 -16 -16 -17 -17 -19 -19 -19 -19 -19 -19 -18 -19 -19 -19 -19 -18 -18 -17 -18 -17 -18 -17 -17 -16 -15 -13 -13 -13 -14 -14 -13 -12 -12 -13 -13 -12 -12 -13 -12 -12
-16 -16 -17 -17 -17 -18 -17 -18 -19 -20 -20 -20 -20 -20 -20 -20 -20 -20 -20 -20 -20 -19 -19 -19 -19 -19 -19 -18 -17 -17 -16 -14 -14 -15 -16 -14 -13 -12 -12 -13 -12 -12 -12 -12 -12
-17 -17 -18 -18 -18 -18 -18 -19 -19 -20 -21 -21 -21 -21 -21 -21 -21 -21 -21 -21 -21 -20 -20 -20 -19 -19 -19 -19 -19 -18 -18 -17 -16 -16 -16 -16 -14 -13 -12 -11 -13 -12 -12 -12 -12
-18 -18 -18 -19 -19 -19 -19 -20 -20 -20 -21 -21 -21 -21 -21 -22 -22 -21 -21 -21 -21 -20 -20 -20 -19 -19 -19 -19 -19 -18 -19 -18 -17 -17 -16 -17 -13 -14 -12 -12 -12 -12 -11 -11 -12
-18 -19 -19 -19 -20 -20 -20 -21 -21 -21 -21 -21 -21 -21 -22 -22 -22 -21 -21 -21 -21 -21 -20 -20 -20 -19 -19 -19 -19 -18 -19 -19 -18 -18 -18 -17 -17 -11 -14 -11 -11 -12 -12 -11 -12
-19 -19 -20 -20 -20 -21 -21 -21 -21 -21 -22 -22 -22 -22 -22 -22 -22 -22 -22 -22 -21 -21 -21 -20 -20 -20 -19 -19 -19 -19 -19 -19 -18 -18 -19 -15 -17 -13 -13 -11 -12 -12 -13 -12 -12
-20 -21 -21 -21 -22 -22 -22 -22 -22 -22 -22 -22 -23 -22 -22 -22 -22 -22 -22 -22 -22 -21 -21 -21 -21 -22 -22 -22 -22 -23 -20 -20 -19 -19 -17 -17 -18 -14 -12 -13 -12 -13 -13 -13 -13
-22 -22 -22 -23 -23 -23 -23 -23 -23 -23 -23 -23 -23 -23 -22 -22 -22 -22 -22 -22 -22 -23 -22 -22 -21 -24 -27 -28 -27 -27 -27 -26 -25 -21 -18 -19 -19 -14 -14 -15 -13 -13 -13 -13 -13
-24 -23 -24 -24 -24 -23 -23 -23 -24 -23 -23 -23 -23 -23 -22 -22 -22 -22 -23 -23 -24 -25 -25 -26 -25 -27 -30 -30 -31 -29 -29 -29 -28 -26 -25 -21 -18 -16 -16 -15 -15 -14 -13 -13 -13
-25 -25 -24 -24 -24 -24 -24 -24 -25 -24 -24 -23 -23 -23 -22 -22 -22 -23 -23 -25 -25 -27 -30 -30 -30 -30 -31 -32 -31 -31 -30 -29 -28 -28 -27 -26 -20 -19 -17 -16 -16 -15 -15 -15 -14
-25 -25 -25 -25 -25 -25 -25 -25 -26 -25 -24 -24 -23 -23 -23 -23 -23 -24 -25 -26 -28 -28 -32 -33 -33 -30 -31 -31 -30 -30 -29 -29 -28 -28 -28 -26 -23 -22 -20 -19 -18 -16 -16 -15 -16
-26 -26 -26 -26 -25 -25 -26 -25 -26 -25 -25 -24 -24 -24 -24 -24 -24 -25 -26 -28 -30 -31 -32 -32 -33 -31 -30 -31 -30 -30 -29 -29 -29 -27 -27 -26 -24 -23 -23 -22 -21 -20 -18 -17 -16
-27 -27 -26 -26 -26 -26 -26 -26 -26 -26 -25 -25 -25 -24 -24 -24 -25 -25 -26 -30 -32 -33 -33 -32 -32 -32 -30 -30 -31 -30 -29 -28 -28 -28 -27 -27 -24 -22 -23 -23 -21 -20 -18 -17 -16
-27 -27 -27 -26 -26 -26 -26 -26 -26 -26 -26 -26 -26 -25 -25 -26 -28 -26 -27 -29 -32 -33 -34 -34 -33 -33 -33 -31 -31 -29 -29 -28 -28 -27 -27 -26 -25 -22 -21 -22 -21 -21 -19 -18 -16
-27 -26 -27 -27 -27 -27 -26 -26 -26 -27 -27 -27 -26 -26 -26 -26 -28 -28 -28 -30 -32 -34 -34 -35 -33 -33 -32 -31 -31 -30 -29 -29 -27 -27 -27 -25 -25 -23 -23 -22 -21 -21 -21 -19 -18
-27 -27 -27 -27 -27 -27 -27 -28 -27 -27 -27 -27 -27 -27 -27 -28 -29 -27 -29 -32 -33 -32 -34 -34 -34 -33 -31 -32 -31 -30 -29 -29 -28 -27 -27 -26 -25 -24 -25 -23 -22 -21 -21 -19 -18
-28 -27 -27 -28 -28 -28 -28 -28 -28 -28 -28 -28 -28 -28 -28 -30 -29 -29 -30 -33 -34 -34 -33 -34 -34 -33 -32 -31 -30 -30 -29 -28 -28 -27 -27 -26 -25 -25 -25 -23 -23 -21 -21 -20 -19
Height
5772 5771 5769 5769 5768 5767 5766 5766 5765 5765 5764 5762 5761 5761 5761 5760 5760 5759 5760 5760 5759 5759 5759 5759 5760 5761 5763 5763 5763 5763 5767 5769 5769 5768 5769 5767 5766 5772 5777 5780 5779 5781 5787 5791 5793
5766 5765 5763 5762 5761 5760 5760 5759 5758 5757 5756 5754 5753 5753 5753 5754 5753 5753 5753 5752 5751 5751 5751 5752 5752 5753 5755 5756 5755 5757 5760 5763 5762 5761 5762 5763 5764 5767 5771 5773 5774 5776 5782 5783 5786
5760 5759 5757 5756 5755 5754 5752 5751 5751 5750 5749 5746 5745 5744 5744 5745 5746 5745 5744 5743 5744 5744 5743 5743 5744 5746 5747 5747 5749 5750 5753 5753 5756 5755 5753 5758 5759 5757 5763 5767 5768 5768 5776 5778 5780
5753 5752 5751 5749 5748 5746 5744 5743 5742 5741 5740 5738 5736 5735 5735 5736 5737 5735 5735 5736 5735 5734 5735 5735 5735 5737 5740 5739 5740 5740 5744 5746 5749 5747 5746 5750 5753 5754 5755 5763 5759 5760 5767 5772 5775
5746 5745 5743 5742 5740 5738 5736 5734 5733 5730 5730 5729 5727 5726 5726 5727 5726 5725 5724 5724 5725 5724 5725 5726 5726 5728 5730 5730 5729 5730 5735 5734 5738 5739 5739 5739 5744 5746 5747 5753 5752 5753 5759 5766 5769
5738 5736 5734 5732 5730 5728 5726 5725 5723 5720 5718 5718 5717 5715 5715 5716 5714 5715 5714 5714 5713 5713 5713 5714 5715 5718 5719 5720 5718 5721 5722 5726 5729 5729 5729 5730 5735 5734 5745 5745 5744 5747 5751 5758 5762
5729 5727 5724 5722 5720 5718 5715 5714 5712 5708 5707 5707 5706 5703 5702 5703 5701 5701 5701 5701 5700 5701 5701 5702 5703 5704 5707 5707 5706 5707 5709 5712 5718 5719 5719 5719 5724 5727 5738 5734 5736 5739 5744 5748 5755
5719 5716 5713 5711 5709 5707 5703 5702 5700 5696 5695 5693 5692 5690 5689 5689 5687 5688 5687 5686 5686 5688 5688 5689 5691 5692 5692 5692 5692 5693 5694 5699 5709 5710 5710 5708 5712 5724 5727 5725 5728 5731 5734 5738 5745
5707 5704 5700 5697 5696 5694 5690 5688 5685 5682 5680 5679 5678 5676 5675 5673 5674 5672 5672 5674 5673 5673 5674 5677 5678 5676 5674 5674 5678 5680 5679 5684 5692 5695 5692 5695 5698 5708 5714 5714 5718 5721 5725 5729 5733
5694 5691 5688 5685 5682 5681 5678 5675 5672 5667 5665 5664 5662 5661 5661 5660 5659 5657 5658 5659 5660 5661 5661 5664 5663 5657 5658 5657 5662 5661 5663 5669 5675 5679 5676 5680 5678 5688 5697 5701 5706 5711 5715 5719 5724
5682 5679 5676 5673 5670 5668 5666 5661 5658 5653 5649 5648 5648 5646 5644 5644 5645 5644 5645 5644 5645 5646 5649 5650 5646 5644 5643 5643 5647 5646 5648 5653 5660 5660 5656 5666 5662 5673 5681 5687 5694 5700 5705 5709 5715
5671 5669 5665 5661 5657 5653 5651 5649 5645 5641 5635 5636 5634 5633 5632 5631 5629 5629 5631 5632 5632 5632 5633 5635 5631 5627 5628 5628 5631 5630 5631 5637 5639 5639 5638 5651 5648 5657 5666 5677 5681 5687 5695 5701 5705
5660 5657 5654 5649 5647 5643 5641 5637 5633 5628 5626 5624 5622 5621 5621 5620 5618 5618 5618 5618 5618 5617 5616 5617 5615 5613 5613 5615 5611 5612 5611 5613 5612 5620 5623 5630 5625 5641 5653 5662 5669 5677 5685 5690 5696
5650 5646 5643 5640 5637 5632 5629 5625 5621 5617 5614 5613 5611 5610 5611 5608 5609 5607 5606 5607 5605 5604 5603 5601 5596 5592 5596 5602 5587 5591 5595 5592 5595 5597 5605 5607 5603 5621 5640 5648 5658 5669 5674 5681 5686
5639 5635 5630 5627 5624 5621 5618 5614 5611 5608 5603 5603 5601 5600 5600 5599 5600 5595 5593 5591 5588 5588 5588 5584 5579 5575 5574 5576 5562 5572 5568 5568 5574 5577 5575 5592 5589 5610 5622 5634 5653 5659 5662 5668 5675
5627 5622 5618 5615 5612 5609 5606 5603 5601 5600 5594 5593 5592 5591 5589 5588 5587 5584 5580 5576 5572 5572 5570 5566 5561 5554 5550 5552 5541 5540 5543 5545 5551 5557 5544 5580 5581 5582 5607 5632 5631 5642 5647 5653 5659
5614 5610 5607 5604 5601 5598 5596 5593 5591 5588 5586 5585 5583 5581 5580 5579 5577 5572 5566 5561 5555 5553 5551 5546 5542 5532 5524 5521 5516 5510 5519 5517 5523 5523 5531 5562 5549 5559 5593 5605 5615 5621 5632 5638 5645
5603 5599 5596 5592 5590 5586 5585 5583 5580 5578 5576 5575 5574 5573 5572 5569 5567 5561 5555 5548 5541 5532 5528 5517 5517 5515 5511 5503 5493 5501 5500 5498 5499 5507 5517 5530 5522 5549 5570 5583 5595 5605 5617 5623 5631
5591 5588 5586 5581 5578 5576 5574 5572 5569 5568 5568 5567 5565 5564 5563 5559 5555 5550 5543 5534 5525 5514 5507 5496 5495 5499 5493 5487 5485 5493 5493 5497 5490 5497 5495 5504 5519 5537 5547 5565 5579 5588 5598 5610 5617
5581 5576 5575 5571 5567 5565 5564 5561 5559 5559 5558 5557 5555 5554 5552 5548 5543 5537 5529 5520 5515 5506 5494 5490 5475 5487 5481 5480 5488 5483 5490 5491 5490 5489 5485 5495 5505 5516 5533 5550 5563 5569 5581 5596 5601
5571 5567 5564 5562 5559 5557 5554 5553 5551 5550 5549 5549 5547 5544 5540 5537 5532 5525 5517 5511 5502 5500 5490 5481 5479 5481 5482 5481 5480 5483 5484 5485 5488 5487 5483 5491 5494 5508 5521 5531 5543 5552 5562 5574 5586
5563 5560 5556 5553 5551 5548 5546 5545 5544 5542 5540 5539 5537 5533 5529 5525 5522 5515 5508 5497 5492 5487 5485 5480 5475 5473 5476 5474 5475 5478 5478 5480 5478 5478 5481 5483 5491 5495 5510 5516 5522 5530 5543 5554 5570
5557 5553 5550 5547 5545 5542 5540 5538 5536 5534 5532 5530 5527 5524 5520 5515 5510 5505 5498 5493 5487 5483 5478 5477 5473 5468 5468 5469 5465 5466 5471 5470 5469 5470 5473 5474 5487 5489 5501 5510 5519 5524 5531 5541 5554
5550 5546 5545 5540 5538 5537 5533 5531 5528 5526 5524 5521 5518 5514 5510 5506 5500 5495 5488 5486 5483 5479 5475 5469 5471 5468 5466 5464 5463 5462 5464 5464 5464 5465 5466 5467 5478 5481 5494 5499 5503 5509 5520 5528 5540
5544 5541 5538 5535 5532 5529 5524 5522 5521 5519 5516 5512 5509 5505 5500 5497 5492 5486 5480 5477 5480 5474 5471 5464 5465 5462 5463 5461 5460 5458 5459 5459 5459 5461 5460 5467 5469 5482 5481 5485 5494 5501 5509 5517 5528
5537 5534 5536 5531 5526 5523 5517 5516 5514 5511 5508 5505 5500 5496 5490 5486 5480 5477 5470 5469 5467 5471 5466 5460 5457 5455 5459 5458 5456 5456 5455 5455 5453 5454 5455 5454 5461 5473 5475 5479 5487 5495 5502 5509 5518
5535 5532 5528 5527 5523 5518 5515 5511 5507 5501 5502 5494 5492 5485 5482 5477 5470 5466 5460 5457 5457 5458 5459 5454 5450 5448 5451 5450 5452 5453 5451 5447 5450 5453 5446 5447 5463 5469 5470 5472 5480 5487 5495 5503 5509
Wind_Speed
26 26 27 28 29 29 29 29 29 29 29 30 31 31 31 31 31 30 30 30 30 30 29 30 30 30 31 32 30 31 27 23 22 26 26 31 35 33 31 31 36 35 30 29 27
28 29 29 30 30 30 30 30 30 31 32 32 33 33 33 33 32 33 33 33 32 32 33 31 32 32 32 33 34 34 30 27 28 30 31 32 33 31 30 32 36 37 31 33 31
32 32 32 32 33 33 33 33 33 33 34 35 36 37 37 37 36 36 35 35 35 35 35 35 35 35 34 36 36 35 32 33 30 32 35 33 33 34 33 32 36 39 35 36 34
33 34 35 35 36 36 37 38 39 39 38 39 41 40 41 41 41 41 41 40 40 40 39 39 38 37 38 39 37 39 36 37 34 36 39 34 33 35 35 30 39 42 39 39 36
37 38 40 40 40 42 43 43 42 43 42 42 43 44 44 44 44 45 46 46 45 44 44 43 44 42 40 41 42 42 38 39 40 41 42 40 34 35 37 32 38 42 42 40 39
41 41 42 43 44 44 45 46 46 47 46 46 47 48 47 48 48 48 49 48 48 48 47 47 46 46 45 46 46 43 43 40 39 43 47 46 39 40 33 36 39 41 43 41 41
41 42 43 44 45 47 48 48 49 49 50 50 52 52 52 51 50 49 49 49 49 48 48 50 50 50 51 49 51 50 48 47 41 44 47 48 47 42 32 39 41 40 41 45 45
45 47 48 48 48 48 50 51 52 53 53 53 54 54 55 54 53 51 51 51 50 50 49 49 52 51 52 53 54 55 55 53 45 44 45 49 50 39 35 41 41 41 41 45 47
48 48 48 48 48 48 50 52 53 53 53 53 54 54 54 54 53 52 52 51 50 49 49 50 50 53 56 57 56 56 58 55 50 48 52 52 52 47 41 43 43 43 43 44 48
46 47 49 49 50 50 51 53 55 56 56 56 56 56 55 54 52 52 52 51 49 47 49 49 51 53 54 57 60 62 62 61 60 56 56 57 59 52 48 48 47 45 45 46 47
48 50 51 50 49 48 49 51 54 54 53 53 52 52 52 53 49 48 47 48 49 51 48 46 51 51 54 57 60 66 70 70 64 60 60 61 67 58 52 50 50 47 47 46 47
46 46 46 46 46 46 48 46 44 46 49 49 49 48 46 45 45 44 42 42 45 46 47 47 48 51 54 57 58 63 67 68 69 66 64 63 69 65 59 50 53 51 48 48 48
45 45 46 47 47 45 44 42 39 39 41 42 42 41 39 37 36 37 39 42 45 48 50 51 53 54 56 57 61 63 66 68 72 68 66 66 75 69 64 56 52 53 49 48 48
45 46 47 46 46 44 42 40 38 40 40 41 39 37 33 33 34 38 41 43 47 47 49 52 56 60 59 56 66 69 66 70 72 72 74 69 82 73 67 62 53 51 53 47 50
47 48 49 47 45 44 41 39 39 38 39 40 36 34 30 33 35 41 44 48 51 51 52 55 58 61 63 63 71 69 72 74 72 75 77 74 77 79 68 66 51 49 54 52 49
49 49 48 48 46 44 41 39 37 36 37 37 36 30 32 35 39 43 49 51 52 52 55 58 63 67 70 70 75 76 79 79 77 76 83 76 75 87 74 61 61 53 53 56 51
50 49 48 46 43 42 41 38 36 34 34 32 32 33 35 37 41 47 50 51 57 58 59 63 63 63 65 67 68 71 75 75 78 82 87 76 80 88 77 69 66 61 54 56 56
50 48 47 44 43 41 39 37 34 32 30 30 30 33 35 39 42 49 51 53 59 62 65 66 62 51 40 42 50 41 44 51 56 71 83 76 79 83 75 68 68 65 59 56 58
49 47 44 41 40 38 37 34 32 30 29 29 31 32 35 40 46 47 50 55 57 61 61 61 56 39 22 24 36 27 26 25 40 52 61 68 79 75 73 69 64 66 60 57 56
43 42 39 38 37 35 34 31 29 28 29 30 31 33 36 41 45 49 52 52 56 51 48 42 46 18 13 24 20 29 23 20 26 40 46 41 59 70 69 63 60 65 58 56 53
39 38 34 33 33 32 29 28 24 27 28 29 30 33 37 42 45 48 51 51 49 45 31 26 24 17 6 12 17 22 27 24 24 32 46 44 48 46 52 54 56 62 60 59 55
37 35 33 30 30 27 27 24 23 26 28 29 30 34 38 41 44 48 49 49 42 37 24 22 24 15 6 11 12 18 17 26 33 23 33 39 30 30 36 42 43 43 54 47 55
33 33 31 29 26 24 25 24 23 23 26 28 30 34 37 42 46 47 49 42 33 26 25 22 23 20 15 14 12 21 25 27 33 37 37 44 44 24 24 29 33 43 36 43 56
32 31 28 28 27 24 24 21 24 25 26 29 31 35 39 42 43 47 48 43 30 25 24 29 22 27 21 17 19 17 27 26 31 37 36 49 39 30 33 32 37 41 51 41 35
32 31 30 29 28 26 26 26 25 27 29 31 34 36 41 43 41 40 46 44 25 21 23 27 25 27 20 18 18 21 26 27 32 28 32 46 46 46 51 38 33 37 39 41 48
37 36 29 27 28 26 29 28 29 30 31 31 36 40 43 43 40 47 48 39 31 16 19 27 25 32 24 20 19 19 17 25 33 30 22 37 50 46 37 47 29 34 40 41 44
36 35 35 30 26 27 27 29 30 34 31 36 38 42 41 35 43 46 47 41 34 29 20 27 25 30 26 25 21 15 14 9 22 25 27 31 34 33 45 31 47 27 31 36 40
Wind_Direction
286 286 286 284 283 283 282 282 282 282 282 281 281 279 278 277 276 277 279 279 280 279 275 274 269 269 265 266 265 265 263 263 259 254 243 247 252 244 244 243 242 239 229 226 233
284 283 283 284 283 282 281 281 281 281 281 280 280 279 278 276 278 280 278 278 278 277 278 274 274 271 267 264 265 264 261 263 260 256 251 249 255 257 248 240 241 241 232 225 223
285 286 286 286 287 287 287 287 285 284 282 280 280 280 279 278 277 275 275 274 274 275 274 274 275 272 270 267 264 262 260 260 262 263 261 252 253 252 248 241 239 241 234 229 227
285 288 290 289 288 288 287 286 284 283 281 280 280 279 279 278 279 277 276 274 273 273 273 273 271 271 272 271 267 263 258 259 260 261 261 260 251 256 254 244 241 240 231 227 228
289 289 288 287 287 287 286 285 284 282 278 277 277 276 277 277 276 277 278 278 276 274 272 270 269 268 269 269 266 266 259 253 254 258 263 262 255 250 253 248 245 242 239 225 230
289 288 288 288 286 285 285 285 284 283 282 280 279 278 277 276 277 277 276 275 274 273 272 271 269 269 268 267 265 264 265 261 253 251 256 261 258 251 247 252 248 244 241 230 225
287 288 289 289 288 288 288 287 286 285 283 282 281 281 281 282 281 278 276 274 273 270 268 268 267 266 266 265 265 263 261 260 255 253 251 259 253 256 248 246 248 248 243 235 223
290 289 289 288 287 287 287 286 286 285 283 282 281 280 280 280 279 279 278 276 275 274 271 269 268 266 264 263 263 260 260 259 256 260 259 260 251 252 250 250 248 246 244 237 226
294 294 293 293 293 292 293 291 290 288 286 284 282 281 280 280 279 278 277 276 273 271 271 271 271 270 266 264 261 260 261 260 256 252 254 255 253 248 245 247 247 246 242 239 232
296 297 296 296 295 294 292 290 288 285 284 283 283 282 281 281 278 277 276 274 273 271 269 267 267 266 265 264 262 261 257 255 257 253 248 249 250 245 240 240 244 242 243 240 233
298 298 297 297 297 297 296 298 296 294 291 286 283 280 279 278 276 273 271 272 271 271 269 270 267 266 263 264 262 261 260 258 255 256 252 248 251 246 240 236 240 241 240 240 237
297 297 297 297 300 302 303 304 300 295 290 286 282 279 277 278 277 275 275 274 273 273 273 273 274 272 270 267 264 263 260 256 255 258 256 250 248 246 243 237 235 239 240 237 237
299 300 300 300 299 299 302 303 303 303 299 294 289 285 283 280 276 277 278 279 280 281 280 278 274 270 267 266 265 262 262 258 258 256 257 255 250 245 244 237 232 236 239 238 237
300 300 299 299 299 299 298 301 303 302 299 299 293 290 286 279 278 284 290 291 291 288 283 282 280 277 273 268 267 262 263 262 260 257 254 250 250 245 239 239 235 233 238 238 238
303 303 301 300 299 299 298 298 299 300 297 299 294 291 289 284 290 293 299 303 301 297 293 290 287 283 279 274 271 265 261 259 256 256 255 251 252 240 241 237 236 235 234 237 236
303 301 300 299 297 297 296 296 298 296 290 291 289 291 286 292 297 301 305 305 303 300 299 297 293 288 281 276 271 267 261 259 256 253 250 247 250 243 241 235 237 232 232 232 234
299 298 297 296 296 296 296 294 294 291 292 290 290 287 289 294 299 302 303 305 309 306 304 304 299 291 285 277 272 270 262 259 253 249 251 248 247 243 237 237 236 235 231 231 230
300 298 298 297 297 295 293 293 291 289 286 286 287 286 291 296 300 305 306 310 311 313 314 309 299 296 292 286 276 265 265 257 252 248 248 242 243 238 239 236 235 238 230 231 231
304 302 301 299 297 295 293 292 292 288 284 284 286 290 296 302 307 310 314 315 319 320 316 311 302 304 295 245 254 260 261 270 262 249 247 243 240 240 242 236 233 235 232 230 231
304 303 303 302 299 297 295 293 294 290 288 288 291 296 302 309 311 316 318 322 322 322 314 311 303 316 214 233 246 272 261 255 260 240 245 235 240 239 238 236 231 232 235 228 230
307 305 305 304 303 301 297 295 298 295 293 295 301 307 313 314 317 321 323 323 323 321 310 297 302 309 268 258 248 245 257 254 263 262 250 234 234 235 236 236 232 232 230 227 220
311 312 310 312 312 307 300 300 302 300 301 304 311 314 317 319 321 324 323 321 323 317 306 268 293 320 239 273 261 262 260 264 257 258 255 242 208 239 232 228 215 223 230 223 222
319 316 315 316 316 308 305 307 304 306 308 313 318 318 321 322 325 326 322 323 317 310 297 267 283 301 231 241 246 244 236 236 238 250 249 239 202 174 198 207 213 214 210 220 222
324 321 321 319 316 314 309 308 309 315 314 317 319 322 321 325 324 325 319 318 313 302 295 297 281 305 296 288 286 259 240 239 246 252 253 240 215 180 171 191 197 202 209 198 190
331 330 332 328 323 323 315 314 315 318 319 319 318 320 320 324 322 315 313 312 313 292 285 297 269 287 271 284 280 289 279 266 253 253 255 229 228 190 214 208 198 200 200 205 216
340 337 343 336 328 324 314 316 320 318 321 318 317 319 319 323 315 321 311 308 308 295 270 285 290 273 246 267 279 289 293 284 280 265 287 247 221 198 220 222 208 196 197 200 203
336 339 343 342 332 320 315 317 318 315 321 315 318 315 318 313 308 312 306 298 298 301 288 283 294 279 267 262 258 271 248 278 279 285 280 253 213 212 214 216 230 199 188 195 202